User: anonymous   Login
Location: Unspecified
(0.0000°N, 0.0000°E)
Time: 23:51:36
(UTC+00:00)
Language:

STARLINK-31158 - Orbit

View from above orbital plane
View from above orbital plane
View from above satellite
View from above satellite

Ground track
Ground track

The orbit is defined by the following mean orbital elements,

1 58854U          26145.45120317 +.00000000 +00000-0 +12303-4 0 00007
2 58854  42.9998 175.2771 0001135 274.7563  85.3159 15.27576913    04
Epoch (UTC): 25 May 2026 10:49:43
Eccentricity: 0.0001135
inclination: 42.9998°
perigee height: 482 km
apogee height: 484 km
right ascension of ascending node: 175.2771°
argument of perigee: 274.7563°
revolutions per day: 15.27576913
mean anomaly at epoch: 85.3159°

The dashed part of the orbit path shows where the satellite is in the earth's shadow,  

DLR